CBERS 4                 
1 40336U 14079A   19266.15653215  .00000551  00000-0  20741-3 0  9997
2 40336  98.5952 334.4008 0001545 134.4978 225.6357 14.35396504251197
CZ-4B R/B               
1 40337U 14079B   19265.54745826  .00000054  00000-0  10531-4 0  9995
2 40337  98.4957 127.0559 0178311 100.9318 261.2015 14.89250118260377